When you browse on this site, cookies collect data to enhance your experience and personalize the content and advertising you see.
Visit our Privacy Policy to learn more. By continuing to use the site, you agree to this use of cookies and data.
  • In Hungary
  • List of Countries
  • For 7 days
  • Water Temperature
  • Weather Map
  • News
  • Weather Widgets
  • user-avatar
    Login

    Hourly Weather Yasna Polyana

    Today, 30 March, Monday

    Time Temperature Precipitation Wind Pressure Humidity
    00:00 +10°C° 0 mm 1 mps 739 mmHg 79%
    01:00 +9°C° 0 mm 1 mps 739 mmHg 80%
    02:00 +9°C° 0 mm 1 mps 738 mmHg 81%
    03:00 +8°C° 0 mm 1 mps 738 mmHg 83%
    04:00 +8°C° 0 mm 1 mps 738 mmHg 85%
    05:00 +7°C° 0 mm 2 mps 738 mmHg 87%
    06:00 +8°C° 0 mm 2 mps 738 mmHg 80%
    07:00 +9°C° 0 mm 2 mps 738 mmHg 74%
    08:00 +10°C° 0 mm 2 mps 739 mmHg 68%
    09:00 +12°C° 0 mm 2 mps 739 mmHg 61%
    10:00 +14°C° 0 mm 2 mps 739 mmHg 55%
    11:00 +14°C° 0 mm 3 mps 739 mmHg 49%
    12:00 +16°C° 0 mm 3 mps 739 mmHg 47%
    13:00 +15°C° 0 mm 4 mps 739 mmHg 44%
    14:00 +17°C° 0 mm 4 mps 739 mmHg 42%
    15:00 +15°C° 0 mm 4 mps 739 mmHg 44%
    16:00 +15°C° 0 mm 4 mps 739 mmHg 47%
    17:00 +14°C° 0 mm 4 mps 740 mmHg 49%
    18:00 +13°C° 0.1 mm 5 mps 740 mmHg 57%
    19:00 +10°C° 0.1 mm 5 mps 741 mmHg 64%
    20:00 +8°C° 0.1 mm 5 mps 742 mmHg 71%
    21:00 +7°C° 0 mm 5 mps 742 mmHg 72%
    22:00 +6°C° 0 mm 5 mps 742 mmHg 73%
    23:00 +5°C° 0 mm 5 mps 743 mmHg 73%

    Tomorrow, 31 March, Tuesday

    Time Temperature Precipitation Wind Pressure Humidity
    00:00 +3°C° 0 mm 5 mps 743 mmHg 73%
    01:00 +3°C° 0 mm 5 mps 743 mmHg 73%
    02:00 +2°C° 0 mm 5 mps 744 mmHg 73%
    03:00 +1°C° 0 mm 5 mps 744 mmHg 73%
    04:00 +1°C° 0 mm 5 mps 745 mmHg 73%
    05:00 0°C° 0 mm 4 mps 745 mmHg 73%
    06:00 0°C° 0 mm 5 mps 746 mmHg 70%
    07:00 +1°C° 0 mm 5 mps 746 mmHg 67%
    08:00 +1°C° 0 mm 6 mps 746 mmHg 63%
    09:00 +2°C° 0 mm 6 mps 747 mmHg 61%
    10:00 +2°C° 0 mm 5 mps 747 mmHg 58%
    11:00 +3°C° 0 mm 5 mps 747 mmHg 56%
    12:00 +3°C° 0 mm 5 mps 747 mmHg 54%
    13:00 +3°C° 0 mm 5 mps 748 mmHg 52%
    14:00 +3°C° 0 mm 5 mps 748 mmHg 49%
    15:00 +3°C° 0 mm 5 mps 748 mmHg 49%
    16:00 +3°C° 0 mm 5 mps 748 mmHg 49%
    17:00 +2°C° 0 mm 5 mps 748 mmHg 49%
    18:00 +3°C° 0 mm 4 mps 749 mmHg 51%
    19:00 +1°C° 0 mm 4 mps 749 mmHg 53%
    20:00 0°C° 0 mm 4 mps 750 mmHg 56%
    21:00 0°C° 0 mm 4 mps 750 mmHg 56%
    22:00 -1°C° 0 mm 4 mps 750 mmHg 56%
    23:00 -1°C° 0 mm 4 mps 750 mmHg 56%

    Day after tomorrow, 1 April, Wednesday

    Time Temperature Precipitation Wind Pressure Humidity
    00:00 -2°C° 0 mm 4 mps 751 mmHg 57%
    01:00 -1°C° 0 mm 3 mps 751 mmHg 59%
    02:00 -2°C° 0 mm 3 mps 751 mmHg 60%
    03:00 -2°C° 0 mm 3 mps 751 mmHg 60%
    04:00 -4°C° 0 mm 3 mps 751 mmHg 59%
    05:00 -4°C° 0 mm 3 mps 751 mmHg 58%
    06:00 -3°C° 0 mm 4 mps 751 mmHg 52%
    07:00 -3°C° 0 mm 4 mps 752 mmHg 45%
    08:00 -2°C° 0 mm 5 mps 752 mmHg 39%
    09:00 -1°C° 0 mm 4 mps 752 mmHg 35%
    10:00 0°C° 0 mm 4 mps 752 mmHg 32%
    11:00 +1°C° 0 mm 4 mps 751 mmHg 28%
    12:00 +1°C° 0 mm 4 mps 751 mmHg 27%
    13:00 +3°C° 0 mm 4 mps 751 mmHg 25%
    14:00 +3°C° 0 mm 3 mps 751 mmHg 24%
    15:00 +3°C° 0 mm 3 mps 750 mmHg 25%
    16:00 +3°C° 0 mm 3 mps 750 mmHg 26%
    17:00 +3°C° 0 mm 3 mps 750 mmHg 27%
    18:00 +3°C° 0 mm 2 mps 750 mmHg 32%
    19:00 +3°C° 0 mm 2 mps 750 mmHg 36%
    20:00 +2°C° 0 mm 2 mps 750 mmHg 41%
    21:00 +1°C° 0 mm 2 mps 750 mmHg 44%
    22:00 0°C° 0 mm 3 mps 750 mmHg 47%
    23:00 0°C° 0 mm 3 mps 749 mmHg 50%

    2 April, Thursday

    Time Temperature Precipitation Wind Pressure Humidity
    00:00 0°C° 0 mm 3 mps 749 mmHg 50%
    01:00 -2°C° 0 mm 4 mps 749 mmHg 51%
    02:00 -2°C° 0 mm 4 mps 749 mmHg 51%
    03:00 -2°C° 0 mm 4 mps 749 mmHg 52%
    04:00 -2°C° 0 mm 4 mps 749 mmHg 54%
    05:00 -2°C° 0 mm 4 mps 748 mmHg 55%
    06:00 -1°C° 0 mm 4 mps 748 mmHg 53%
    07:00 0°C° 0 mm 4 mps 749 mmHg 50%
    08:00 +1°C° 0 mm 4 mps 749 mmHg 47%
    09:00 +4°C° 0 mm 4 mps 748 mmHg 42%
    10:00 +5°C° 0 mm 5 mps 748 mmHg 37%
    11:00 +7°C° 0 mm 5 mps 748 mmHg 32%
    12:00 +7°C° 0 mm 5 mps 748 mmHg 31%
    13:00 +8°C° 0 mm 5 mps 747 mmHg 31%
    14:00 +8°C° 0 mm 5 mps 747 mmHg 30%
    15:00 +8°C° 0 mm 5 mps 747 mmHg 31%
    16:00 +8°C° 0 mm 5 mps 747 mmHg 32%
    17:00 +7°C° 0 mm 5 mps 746 mmHg 33%
    18:00 +6°C° 0 mm 4 mps 747 mmHg 37%
    19:00 +5°C° 0 mm 3 mps 747 mmHg 41%
    20:00 +4°C° 0 mm 3 mps 747 mmHg 44%
    21:00 +3°C° 0 mm 3 mps 747 mmHg 47%
    22:00 +3°C° 0 mm 3 mps 747 mmHg 49%
    23:00 +2°C° 0 mm 3 mps 747 mmHg 51%

    3 April, Friday

    Time Temperature Precipitation Wind Pressure Humidity
    00:00 +2°C° 0 mm 3 mps 747 mmHg 52%
    01:00 +2°C° 0 mm 3 mps 747 mmHg 53%
    02:00 +1°C° 0 mm 3 mps 747 mmHg 55%
    03:00 +1°C° 0 mm 3 mps 747 mmHg 56%
    04:00 0°C° 0 mm 3 mps 747 mmHg 57%
    05:00 0°C° 0 mm 3 mps 747 mmHg 58%
    06:00 +2°C° 0 mm 3 mps 747 mmHg 55%
    07:00 +3°C° 0 mm 3 mps 747 mmHg 52%
    08:00 +4°C° 0 mm 3 mps 747 mmHg 49%
    09:00 +7°C° 0 mm 3 mps 747 mmHg 44%
    10:00 +8°C° 0 mm 4 mps 747 mmHg 39%
    11:00 +10°C° 0 mm 4 mps 747 mmHg 35%
    12:00 +11°C° 0 mm 4 mps 747 mmHg 34%
    13:00 +11°C° 0 mm 4 mps 747 mmHg 34%
    14:00 +11°C° 0 mm 4 mps 746 mmHg 33%
    15:00 +11°C° 0 mm 4 mps 746 mmHg 34%
    16:00 +11°C° 0 mm 4 mps 746 mmHg 35%
    17:00 +11°C° 0 mm 3 mps 746 mmHg 35%
    18:00 +10°C° 0 mm 3 mps 746 mmHg 40%
    19:00 +8°C° 0 mm 3 mps 746 mmHg 44%
    20:00 +7°C° 0 mm 3 mps 746 mmHg 48%
    21:00 +7°C° 0 mm 3 mps 746 mmHg 50%
    22:00 +5°C° 0 mm 4 mps 747 mmHg 51%
    23:00 +5°C° 0 mm 4 mps 747 mmHg 52%

    4 April, Saturday

    Time Temperature Precipitation Wind Pressure Humidity
    00:00 +4°C° 0 mm 4 mps 746 mmHg 54%
    01:00 +4°C° 0 mm 4 mps 746 mmHg 55%
    02:00 +3°C° 0 mm 4 mps 746 mmHg 57%
    03:00 +3°C° 0 mm 4 mps 746 mmHg 57%
    04:00 +3°C° 0 mm 4 mps 746 mmHg 56%
    05:00 +1°C° 0 mm 4 mps 746 mmHg 56%
    06:00 +2°C° 0 mm 5 mps 746 mmHg 57%
    07:00 +3°C° 0 mm 5 mps 747 mmHg 58%
    08:00 +4°C° 0 mm 6 mps 747 mmHg 60%
    09:00 +5°C° 0.1 mm 5 mps 747 mmHg 64%
    10:00 +5°C° 0.1 mm 5 mps 747 mmHg 68%
    11:00 +5°C° 0.1 mm 4 mps 748 mmHg 72%
    12:00 +6°C° 0.1 mm 5 mps 748 mmHg 62%
    13:00 +7°C° 0.1 mm 5 mps 748 mmHg 52%
    14:00 +8°C° 0.1 mm 6 mps 748 mmHg 42%
    15:00 +8°C° 0.1 mm 6 mps 749 mmHg 44%
    16:00 +7°C° 0.1 mm 6 mps 749 mmHg 45%
    17:00 +5°C° 0.1 mm 6 mps 749 mmHg 46%
    18:00 +5°C° 0 mm 5 mps 750 mmHg 50%
    19:00 +4°C° 0 mm 4 mps 751 mmHg 53%
    20:00 +3°C° 0 mm 3 mps 751 mmHg 56%
    21:00 +3°C° 0 mm 3 mps 752 mmHg 58%
    22:00 +2°C° 0 mm 3 mps 753 mmHg 59%
    23:00 +2°C° 0 mm 3 mps 753 mmHg 61%
    Show more